• In Moldova, Republic
  • List of Countries
  • For 7 days
  • Water Temperature
  • Satellite Maps
  • Weather Map
  • Weather Widgets
  • user-avatar
    Login

    Hourly Weather Tibissa

    Today, 16 January, Monday

    Time Temperature Precipitation Wind Pressure Humidity
    00:00 -2°C° 0 mm 7 mps 681 mmHg 78%
    01:00 -3°C° 0 mm 7 mps 681 mmHg 77%
    02:00 -3°C° 0 mm 7 mps 681 mmHg 78%
    03:00 -4°C° 0 mm 8 mps 681 mmHg 79%
    04:00 -4°C° 0 mm 9 mps 681 mmHg 80%
    05:00 -4°C° 0 mm 8 mps 681 mmHg 81%
    06:00 -4°C° 0 mm 8 mps 681 mmHg 81%
    07:00 -3°C° 0 mm 6 mps 681 mmHg 82%
    08:00 -2°C° 0.1 mm 7 mps 681 mmHg 78%
    09:00 -1°C° 0.1 mm 7 mps 681 mmHg 74%
    10:00 0°C° 0.1 mm 8 mps 681 mmHg 70%
    11:00 0°C° 0.2 mm 8 mps 681 mmHg 69%
    12:00 +1°C° 0.2 mm 8 mps 681 mmHg 68%
    13:00 +1°C° 0.2 mm 8 mps 681 mmHg 67%
    14:00 +2°C° 0.3 mm 7 mps 680 mmHg 69%
    15:00 +2°C° 0.3 mm 7 mps 680 mmHg 72%
    16:00 +2°C° 0.3 mm 7 mps 680 mmHg 74%
    17:00 +1°C° 0.2 mm 6 mps 679 mmHg 77%
    18:00 +1°C° 0.2 mm 5 mps 679 mmHg 81%
    19:00 0°C° 0.2 mm 4 mps 679 mmHg 84%
    20:00 0°C° 0 mm 5 mps 679 mmHg 82%
    21:00 0°C° 0 mm 5 mps 678 mmHg 81%
    22:00 -2°C° 0 mm 6 mps 678 mmHg 80%
    23:00 -1°C° 0.5 mm 5 mps 678 mmHg 82%

    Tomorrow, 17 January, Tuesday

    Time Temperature Precipitation Wind Pressure Humidity
    00:00 -1°C° 0.5 mm 5 mps 677 mmHg 83%
    01:00 -1°C° 0.5 mm 4 mps 677 mmHg 85%
    02:00 -1°C° 0.5 mm 5 mps 677 mmHg 85%
    03:00 -3°C° 0.5 mm 6 mps 677 mmHg 86%
    04:00 -3°C° 0.5 mm 7 mps 676 mmHg 86%
    05:00 -3°C° 0 mm 7 mps 676 mmHg 86%
    06:00 -4°C° 0 mm 7 mps 676 mmHg 86%
    07:00 -4°C° 0 mm 7 mps 676 mmHg 85%
    08:00 -4°C° 0.1 mm 8 mps 677 mmHg 82%
    09:00 -4°C° 0.1 mm 8 mps 677 mmHg 80%
    10:00 -2°C° 0.1 mm 8 mps 677 mmHg 77%
    11:00 -1°C° 0.1 mm 8 mps 677 mmHg 74%
    12:00 -1°C° 0.1 mm 9 mps 677 mmHg 72%
    13:00 0°C° 0.1 mm 9 mps 677 mmHg 69%
    14:00 -1°C° 0.1 mm 8 mps 677 mmHg 69%
    15:00 -1°C° 0.1 mm 8 mps 677 mmHg 69%
    16:00 -1°C° 0.1 mm 8 mps 677 mmHg 68%
    17:00 -2°C° 0 mm 7 mps 677 mmHg 74%
    18:00 -3°C° 0 mm 6 mps 677 mmHg 79%
    19:00 -5°C° 0 mm 5 mps 677 mmHg 85%
    20:00 -5°C° 0 mm 6 mps 677 mmHg 84%
    21:00 -5°C° 0 mm 6 mps 677 mmHg 84%
    22:00 -6°C° 0 mm 7 mps 677 mmHg 83%
    23:00 -6°C° 0 mm 7 mps 677 mmHg 84%

    Day after tomorrow, 18 January, Wednesday

    Time Temperature Precipitation Wind Pressure Humidity
    00:00 -6°C° 0 mm 7 mps 677 mmHg 85%
    01:00 -4°C° 0 mm 7 mps 677 mmHg 86%
    02:00 -4°C° 0 mm 7 mps 677 mmHg 87%
    03:00 -4°C° 0 mm 7 mps 677 mmHg 88%
    04:00 -4°C° 0 mm 7 mps 677 mmHg 88%
    05:00 -4°C° 0 mm 6 mps 678 mmHg 89%
    06:00 -4°C° 0 mm 6 mps 678 mmHg 89%
    07:00 -4°C° 0 mm 5 mps 678 mmHg 90%
    08:00 -3°C° 0 mm 6 mps 679 mmHg 86%
    09:00 -2°C° 0 mm 7 mps 679 mmHg 82%
    10:00 -1°C° 0 mm 7 mps 680 mmHg 78%
    11:00 0°C° 0 mm 7 mps 680 mmHg 76%
    12:00 +1°C° 0 mm 8 mps 680 mmHg 73%
    13:00 +1°C° 0 mm 8 mps 680 mmHg 70%
    14:00 +2°C° 0 mm 7 mps 680 mmHg 70%
    15:00 +2°C° 0 mm 7 mps 681 mmHg 71%
    16:00 +2°C° 0 mm 6 mps 681 mmHg 71%
    17:00 +1°C° 0 mm 5 mps 681 mmHg 76%
    18:00 0°C° 0 mm 4 mps 681 mmHg 81%
    19:00 0°C° 0 mm 3 mps 682 mmHg 85%
    20:00 0°C° 0 mm 3 mps 682 mmHg 86%
    21:00 -1°C° 0 mm 3 mps 682 mmHg 87%
    22:00 -1°C° 0 mm 3 mps 683 mmHg 88%
    23:00 -1°C° 0 mm 3 mps 683 mmHg 87%

    19 January, Thursday

    Time Temperature Precipitation Wind Pressure Humidity
    00:00 -2°C° 0 mm 2 mps 683 mmHg 86%
    01:00 -2°C° 0 mm 2 mps 683 mmHg 86%
    02:00 -2°C° 0 mm 2 mps 683 mmHg 85%
    03:00 -2°C° 0 mm 2 mps 683 mmHg 84%
    04:00 0°C° 0 mm 1 mps 683 mmHg 83%
    05:00 0°C° 0 mm 1 mps 683 mmHg 83%
    06:00 0°C° 0 mm 1 mps 683 mmHg 83%
    07:00 0°C° 0 mm 1 mps 683 mmHg 83%
    08:00 +1°C° 0 mm 1 mps 684 mmHg 77%
    09:00 +3°C° 0 mm 1 mps 685 mmHg 71%
    10:00 +5°C° 0 mm 1 mps 685 mmHg 66%
    11:00 +6°C° 0 mm 1 mps 685 mmHg 62%
    12:00 +6°C° 0 mm 2 mps 685 mmHg 58%
    13:00 +7°C° 0 mm 3 mps 685 mmHg 55%
    14:00 +7°C° 0 mm 3 mps 685 mmHg 55%
    15:00 +7°C° 0 mm 2 mps 685 mmHg 56%
    16:00 +7°C° 0 mm 2 mps 684 mmHg 57%
    17:00 +6°C° 0 mm 2 mps 684 mmHg 63%
    18:00 +4°C° 0 mm 2 mps 684 mmHg 69%
    19:00 +3°C° 0 mm 2 mps 684 mmHg 75%
    20:00 +2°C° 0 mm 2 mps 684 mmHg 77%
    21:00 +2°C° 0 mm 2 mps 684 mmHg 79%
    22:00 +2°C° 0 mm 2 mps 684 mmHg 82%
    23:00 +1°C° 0 mm 2 mps 684 mmHg 84%

    20 January, Friday

    Time Temperature Precipitation Wind Pressure Humidity
    00:00 0°C° 0 mm 3 mps 684 mmHg 87%
    01:00 0°C° 0 mm 3 mps 684 mmHg 90%
    02:00 0°C° 0 mm 3 mps 683 mmHg 91%
    03:00 0°C° 0 mm 3 mps 683 mmHg 93%
    04:00 -1°C° 0 mm 3 mps 683 mmHg 94%
    05:00 -1°C° 0 mm 3 mps 682 mmHg 95%
    06:00 -1°C° 0 mm 3 mps 682 mmHg 95%
    07:00 -1°C° 0 mm 3 mps 682 mmHg 95%
    08:00 0°C° 0 mm 4 mps 682 mmHg 92%
    09:00 +1°C° 0 mm 6 mps 682 mmHg 89%
    10:00 +2°C° 0 mm 7 mps 683 mmHg 86%
    11:00 +3°C° 0.1 mm 7 mps 682 mmHg 86%
    12:00 +3°C° 0.1 mm 7 mps 681 mmHg 87%
    13:00 +3°C° 0.1 mm 7 mps 681 mmHg 87%
    14:00 +4°C° 0.1 mm 7 mps 680 mmHg 85%
    15:00 +4°C° 0.1 mm 7 mps 680 mmHg 84%
    16:00 +4°C° 0.1 mm 7 mps 679 mmHg 82%
    17:00 +3°C° 0.2 mm 6 mps 679 mmHg 81%
    18:00 +3°C° 0.2 mm 5 mps 679 mmHg 80%
    19:00 +2°C° 0.2 mm 5 mps 678 mmHg 80%
    20:00 +1°C° 0 mm 4 mps 678 mmHg 78%
    21:00 0°C° 0 mm 4 mps 678 mmHg 76%
    22:00 +1°C° 0 mm 3 mps 678 mmHg 74%
    23:00 0°C° 0 mm 3 mps 678 mmHg 74%

    21 January, Saturday

    Time Temperature Precipitation Wind Pressure Humidity
    00:00 0°C° 0 mm 3 mps 678 mmHg 74%
    01:00 +1°C° 0 mm 2 mps 677 mmHg 74%
    02:00 -1°C° 0 mm 2 mps 677 mmHg 75%
    03:00 -1°C° 0 mm 2 mps 677 mmHg 77%
    04:00 -1°C° 0 mm 2 mps 677 mmHg 78%
    05:00 -1°C° 0 mm 2 mps 677 mmHg 79%
    06:00 -1°C° 0 mm 2 mps 677 mmHg 80%
    07:00 -1°C° 0 mm 2 mps 677 mmHg 81%
    08:00 0°C° 0 mm 3 mps 677 mmHg 78%
    09:00 +1°C° 0 mm 4 mps 678 mmHg 74%
    10:00 +2°C° 0 mm 5 mps 678 mmHg 71%
    11:00 +3°C° 0.1 mm 6 mps 678 mmHg 69%
    12:00 +3°C° 0.1 mm 6 mps 678 mmHg 67%
    13:00 +4°C° 0.1 mm 7 mps 677 mmHg 65%
    14:00 +4°C° 0.1 mm 6 mps 677 mmHg 67%
    15:00 +3°C° 0.1 mm 6 mps 677 mmHg 70%
    16:00 +3°C° 0.1 mm 5 mps 677 mmHg 72%
    17:00 +2°C° 0 mm 5 mps 677 mmHg 78%
    18:00 +1°C° 0 mm 4 mps 677 mmHg 84%
    19:00 +1°C° 0 mm 3 mps 677 mmHg 89%
    20:00 +1°C° 0 mm 3 mps 677 mmHg 90%
    21:00 0°C° 0 mm 3 mps 678 mmHg 91%
    22:00 0°C° 0 mm 3 mps 678 mmHg 92%
    23:00 0°C° 0 mm 3 mps 678 mmHg 91%
    Show more